Location: *
(49.7115°N, 15.0136°E)
Time: 17:04:42
(UTC+00:00)

Cosmos 1125 Rocket - Pass Details

Date: 27 February 2020
Orbit: 757 x 780 km, 74.0° (Epoch: 06 April)

Event Time Altitude Azimuth Distance (km) Brightness Sun altitude
Rises 19:24:41 0° 335° (NNW) 3,275 7.4 -27.3°
Reaches altitude 10° 19:27:05 10° 335° (NNW) 2,344 6.6 -27.7°
Enters shadow 19:32:01 76° 310° (NW) 811 3.6 -28.4°
